• In Portugal
  • List of Countries
  • For 7 days
  • Water Temperature
  • Satellite Maps
  • Weather Map
  • Weather Widgets
  • user-avatar
    Login

    Hourly Weather Rundu

    Today, 19 October, Thursday

    Time Temperature Precipitation Wind Pressure Humidity
    00:00 +30°C° 0 mm 1 mps 665 mmHg 17%
    01:00 +29°C° 0 mm 1 mps 665 mmHg 17%
    02:00 +29°C° 0 mm 1 mps 665 mmHg 17%
    03:00 +29°C° 0 mm 2 mps 665 mmHg 16%
    04:00 +28°C° 0 mm 2 mps 665 mmHg 16%
    05:00 +29°C° 0 mm 3 mps 666 mmHg 14%
    06:00 +30°C° 0 mm 4 mps 667 mmHg 13%
    07:00 +32°C° 0 mm 5 mps 668 mmHg 12%
    08:00 +35°C° 0 mm 5 mps 668 mmHg 10%
    09:00 +37°C° 0 mm 5 mps 668 mmHg 8%
    10:00 +41°C° 0 mm 4 mps 669 mmHg 7%
    11:00 +42°C° 0 mm 3 mps 668 mmHg 6%
    12:00 +43°C° 0 mm 2 mps 668 mmHg 6%
    13:00 +45°C° 0 mm 2 mps 667 mmHg 6%
    14:00 +43°C° 0 mm 1 mps 667 mmHg 6%
    15:00 +42°C° 0 mm 1 mps 666 mmHg 7%
    16:00 +42°C° 0 mm 1 mps 666 mmHg 7%
    17:00 +40°C° 0 mm 2 mps 666 mmHg 8%
    18:00 +38°C° 0 mm 2 mps 666 mmHg 9%
    19:00 +36°C° 0 mm 2 mps 666 mmHg 10%
    20:00 +34°C° 0 mm 2 mps 666 mmHg 11%
    21:00 +32°C° 0 mm 2 mps 666 mmHg 12%
    22:00 +30°C° 0 mm 2 mps 666 mmHg 13%
    23:00 +29°C° 0 mm 2 mps 666 mmHg 14%

    Tomorrow, 20 October, Friday

    Time Temperature Precipitation Wind Pressure Humidity
    00:00 +29°C° 0 mm 2 mps 666 mmHg 14%
    01:00 +28°C° 0 mm 2 mps 665 mmHg 15%
    02:00 +27°C° 0 mm 2 mps 665 mmHg 15%
    03:00 +26°C° 0 mm 2 mps 665 mmHg 15%
    04:00 +25°C° 0 mm 2 mps 665 mmHg 15%
    05:00 +27°C° 0 mm 3 mps 666 mmHg 13%
    06:00 +29°C° 0 mm 4 mps 667 mmHg 11%
    07:00 +32°C° 0 mm 5 mps 668 mmHg 10%
    08:00 +35°C° 0 mm 5 mps 668 mmHg 8%
    09:00 +38°C° 0 mm 4 mps 669 mmHg 7%
    10:00 +42°C° 0 mm 4 mps 669 mmHg 6%
    11:00 +43°C° 0 mm 3 mps 669 mmHg 6%
    12:00 +45°C° 0 mm 2 mps 668 mmHg 6%
    13:00 +45°C° 0 mm 1 mps 668 mmHg 5%
    14:00 +44°C° 0 mm 1 mps 667 mmHg 6%
    15:00 +43°C° 0 mm 1 mps 667 mmHg 6%
    16:00 +42°C° 0 mm 1 mps 666 mmHg 6%
    17:00 +40°C° 0 mm 1 mps 666 mmHg 7%
    18:00 +38°C° 0 mm 2 mps 666 mmHg 9%
    19:00 +35°C° 0 mm 2 mps 666 mmHg 10%
    20:00 +33°C° 0 mm 1 mps 667 mmHg 12%
    21:00 +32°C° 0 mm 1 mps 667 mmHg 14%
    22:00 +31°C° 0 mm 1 mps 667 mmHg 16%
    23:00 +30°C° 0 mm 1 mps 667 mmHg 17%

    Day after tomorrow, 21 October, Saturday

    Time Temperature Precipitation Wind Pressure Humidity
    00:00 +29°C° 0 mm 2 mps 666 mmHg 18%
    01:00 +28°C° 0 mm 2 mps 666 mmHg 19%
    02:00 +28°C° 0 mm 2 mps 666 mmHg 18%
    03:00 +28°C° 0 mm 3 mps 666 mmHg 17%
    04:00 +27°C° 0 mm 3 mps 666 mmHg 15%
    05:00 +29°C° 0 mm 3 mps 667 mmHg 14%
    06:00 +30°C° 0 mm 3 mps 668 mmHg 12%
    07:00 +31°C° 0 mm 3 mps 668 mmHg 10%
    08:00 +35°C° 0 mm 3 mps 669 mmHg 9%
    09:00 +37°C° 0 mm 3 mps 669 mmHg 8%
    10:00 +40°C° 0 mm 3 mps 669 mmHg 7%
    11:00 +42°C° 0 mm 3 mps 669 mmHg 7%
    12:00 +43°C° 0 mm 2 mps 668 mmHg 8%
    13:00 +45°C° 0 mm 2 mps 668 mmHg 8%
    14:00 +43°C° 0 mm 2 mps 667 mmHg 9%
    15:00 +42°C° 0 mm 2 mps 667 mmHg 9%
    16:00 +41°C° 0 mm 2 mps 666 mmHg 10%
    17:00 +39°C° 0 mm 2 mps 666 mmHg 12%
    18:00 +37°C° 0 mm 2 mps 667 mmHg 14%
    19:00 +36°C° 0 mm 2 mps 667 mmHg 16%
    20:00 +35°C° 0 mm 2 mps 667 mmHg 18%
    21:00 +34°C° 0 mm 2 mps 667 mmHg 21%
    22:00 +32°C° 0 mm 2 mps 668 mmHg 23%
    23:00 +31°C° 0 mm 2 mps 667 mmHg 25%

    22 October, Sunday

    Time Temperature Precipitation Wind Pressure Humidity
    00:00 +30°C° 0 mm 2 mps 667 mmHg 27%
    01:00 +29°C° 0 mm 2 mps 666 mmHg 29%
    02:00 +29°C° 0.2 mm 2 mps 666 mmHg 33%
    03:00 +28°C° 0.2 mm 2 mps 666 mmHg 36%
    04:00 +27°C° 0.2 mm 2 mps 666 mmHg 39%
    05:00 +28°C° 0.4 mm 3 mps 667 mmHg 40%
    06:00 +28°C° 0.4 mm 3 mps 668 mmHg 40%
    07:00 +29°C° 0.4 mm 4 mps 669 mmHg 41%
    08:00 +31°C° 0 mm 3 mps 669 mmHg 35%
    09:00 +35°C° 0 mm 2 mps 670 mmHg 30%
    10:00 +37°C° 0 mm 2 mps 670 mmHg 25%
    11:00 +39°C° 0 mm 1 mps 670 mmHg 22%
    12:00 +40°C° 0 mm 1 mps 669 mmHg 19%
    13:00 +42°C° 0 mm 1 mps 668 mmHg 16%
    14:00 +41°C° 0 mm 1 mps 668 mmHg 17%
    15:00 +40°C° 0 mm 2 mps 668 mmHg 17%
    16:00 +39°C° 0 mm 2 mps 667 mmHg 18%
    17:00 +38°C° 0 mm 2 mps 667 mmHg 20%
    18:00 +36°C° 0 mm 2 mps 668 mmHg 22%
    19:00 +34°C° 0 mm 1 mps 668 mmHg 24%
    20:00 +33°C° 0 mm 1 mps 668 mmHg 26%
    21:00 +32°C° 0 mm 1 mps 668 mmHg 28%
    22:00 +31°C° 0 mm 1 mps 667 mmHg 30%
    23:00 +30°C° 0.7 mm 2 mps 667 mmHg 34%

    23 October, Monday

    Time Temperature Precipitation Wind Pressure Humidity
    00:00 +29°C° 0.7 mm 2 mps 667 mmHg 38%
    01:00 +28°C° 0.7 mm 2 mps 667 mmHg 42%
    02:00 +27°C° 0.4 mm 2 mps 667 mmHg 45%
    03:00 +27°C° 0.4 mm 2 mps 667 mmHg 48%
    04:00 +27°C° 0.4 mm 2 mps 667 mmHg 50%
    05:00 +27°C° 0 mm 3 mps 668 mmHg 47%
    06:00 +28°C° 0 mm 3 mps 669 mmHg 44%
    07:00 +29°C° 0 mm 3 mps 669 mmHg 40%
    08:00 +31°C° 0.1 mm 3 mps 670 mmHg 36%
    09:00 +33°C° 0.1 mm 3 mps 670 mmHg 32%
    10:00 +34°C° 0.1 mm 3 mps 670 mmHg 27%
    11:00 +36°C° 0 mm 2 mps 669 mmHg 24%
    12:00 +38°C° 0 mm 2 mps 669 mmHg 21%
    13:00 +39°C° 0 mm 2 mps 668 mmHg 18%
    14:00 +39°C° 0 mm 2 mps 668 mmHg 18%
    15:00 +39°C° 0 mm 1 mps 668 mmHg 18%
    16:00 +39°C° 0 mm 1 mps 667 mmHg 18%
    17:00 +36°C° 0.3 mm 1 mps 668 mmHg 22%
    18:00 +34°C° 0.3 mm 1 mps 668 mmHg 26%
    19:00 +32°C° 0.3 mm 1 mps 668 mmHg 29%
    20:00 +31°C° 0.2 mm 2 mps 668 mmHg 32%
    21:00 +30°C° 0.2 mm 2 mps 668 mmHg 34%
    22:00 +29°C° 0.2 mm 3 mps 668 mmHg 37%
    23:00 +29°C° 0 mm 2 mps 667 mmHg 39%

    24 October, Tuesday

    Time Temperature Precipitation Wind Pressure Humidity
    00:00 +28°C° 0 mm 2 mps 667 mmHg 41%
    01:00 +27°C° 0 mm 2 mps 666 mmHg 43%
    02:00 +27°C° 0 mm 1 mps 666 mmHg 43%
    03:00 +26°C° 0 mm 1 mps 666 mmHg 44%
    04:00 +24°C° 0 mm 0 mps 666 mmHg 44%
    05:00 +27°C° 0 mm 1 mps 667 mmHg 41%
    06:00 +28°C° 0 mm 1 mps 667 mmHg 38%
    07:00 +30°C° 0 mm 1 mps 668 mmHg 35%
    08:00 +32°C° 0 mm 1 mps 668 mmHg 30%
    09:00 +36°C° 0 mm 2 mps 668 mmHg 25%
    10:00 +38°C° 0 mm 2 mps 669 mmHg 20%
    11:00 +39°C° 0 mm 2 mps 668 mmHg 18%
    12:00 +39°C° 0 mm 2 mps 667 mmHg 17%
    13:00 +40°C° 0 mm 1 mps 667 mmHg 15%
    14:00 +39°C° 0 mm 2 mps 666 mmHg 16%
    15:00 +39°C° 0 mm 2 mps 666 mmHg 16%
    16:00 +39°C° 0 mm 2 mps 666 mmHg 16%
    17:00 +37°C° 0 mm 2 mps 666 mmHg 18%
    18:00 +35°C° 0 mm 2 mps 666 mmHg 20%
    19:00 +34°C° 0 mm 2 mps 666 mmHg 22%
    20:00 +34°C° 0 mm 2 mps 666 mmHg 24%
    21:00 +33°C° 0 mm 3 mps 666 mmHg 25%
    22:00 +33°C° 0 mm 3 mps 666 mmHg 27%
    23:00 +33°C° 0 mm 3 mps 666 mmHg 27%
    Show more